Flag for U.S.A. Weather past 2 weeks in Scottsdale, Arizona, U.S.A.

Now
82 °F

Sunny.


Feels Like: 80 °F
Forecast: 58 / 84 °F
Wind: 6 mph from North

Location: Scottsdale Airport


UV Index: 7 (High)

Visibility: 10 mi


Pressure: 29.73 "Hg

Humidity: 7%

Dew point: 12 °F

Location of ScottsdaleLocation

Historic Weather in Scottsdale

°F

Scottsdale temperature yesterday

Maximum temperature yesterday: 92 °F (at 2:53 PM)
Minimum temperature yesterday: 68 °F (at 5:53 AM)
Average temperature yesterday: 81 °F

Past Weeks' High & Low Weather Summary

 TemperatureHumidityPressure
High94 °F (Apr 10, 3:53 PM)54% (Apr 19, 5:53 AM)30.04 "Hg (Apr 19, 5:53 AM)
Low58 °F (Apr 15, 5:53 AM)4% (Apr 10, 4:53 PM)29.62 "Hg (Apr 22, 5:53 PM)
Average77 °F18%29.83 "Hg
* Reported Apr 8 2:53 PM — Apr 23 2:53 PM, Scottsdale, Weather by CustomWeather, © 2014

Note: Actual official high and low records may vary slightly from our data, if they occured in-between our weather recording intervals... More about our weather records

Advertising

Historic Weather Conditions — Data for Previous 24 hours

 ConditionsComfort  
Time TempWeatherWind HumidityBarometerVisibility
2:53 PM
Apr 23
82 °FSunny.10 mph8%29.75 "Hg10 mi
1:53 PM80 °FSunny.9 mph9%29.78 "Hg10 mi
12:53 PM79 °FSunny.18 mph10%29.78 "Hg10 mi
11:53 AM78 °FSunny.10 mph10%29.78 "Hg10 mi
10:53 AM76 °FSunny.No wind10%29.78 "Hg10 mi
9:53 AM73 °FSunny.No wind11%29.79 "Hg10 mi
8:53 AM71 °FSunny.6 mph14%29.78 "Hg10 mi
7:53 AM69 °FSunny.No wind14%29.76 "Hg10 mi
6:53 AM67 °FSunny.3 mph22%29.74 "Hg10 mi
5:53 AM66 °FSunny.No wind24%29.72 "Hg10 mi
4:53 AM69 °FClear.No wind20%29.70 "Hg10 mi
3:53 AM71 °FClear.3 mph19%29.69 "Hg10 mi
2:53 AM71 °FClear.No wind23%29.68 "Hg10 mi
1:53 AM74 °FClear.8 mph20%29.68 "Hg10 mi
12:53 AM76 °FClear.10 mph19%29.67 "Hg10 mi
11:53 PM
Apr 22
77 °FClear.3 mph18%29.67 "Hg10 mi
10:53 PM80 °FClear.12 mph17%29.67 "Hg10 mi
9:53 PM82 °FClear.10 mph16%29.67 "Hg10 mi
8:53 PM84 °FClear.12 mph15%29.65 "Hg10 mi
7:53 PM85 °FClear.8 mph14%29.64 "Hg10 mi
6:53 PM87 °FSunny.13 mph13%29.62 "Hg10 mi
5:53 PM89 °FSunny.15 mph11%29.62 "Hg10 mi
Weather by CustomWeather, © 2014

See weather overview